Location: Downe
(51.3167°N, 0.0500°E)
Time: 03:04:48
(UTC+00:00)

Cosmos 1743 Rocket - Pass Details

Date: 17 November 2019
Orbit: 605 x 632 km, 82.6° (Epoch: 14 December)

Event Time Altitude Azimuth Distance (km) Brightness Sun altitude
Rises 06:09:16 0° 194° (SSW) 2,859 7.0 -10.9°
Reaches altitude 10° 06:11:29 10° 196° (SSW) 1,956 6.1 -10.6°
Maximum altitude 06:15:48 73° 281° (W) 640 3.4 -10.0°
Drops below altitude 10° 06:20:09 10° 7° (N) 1,967 6.0 -9.3°
Sets 06:22:23 0° 10° (N) 2,875 6.9 -9.0°
